Regional Weather Roundup
Issued by NWS

Home | Current Version | Previous Version | Graphics & Text | Print | Product List | Glossary On
Versions: 1 2 3 4 5 6 7 8 9 10 11 12 13 14 15 16 17 18 19 20 21 22 23 24 25 26 27 28 29 30 31 32 33 34 35 36 37 38 39 40 41 42 43 44 45 46 47 48 49 50
000
ASUS44 KMEG 032100
RWRTN
TENNESSEE HOURLY STATE WEATHER ROUNDUP
NATIONAL WEATHER SERVICE MEMPHIS TN
400 PM CDT THU SEP 03 2015

TNZ002-004-019-021-049-052-054-088>092-032200-
WEST TENNESSEE

CITY           SKY/WX    TMP DP  RH WIND       PRES   REMARKS
MEMPHIS INTL   MOSUNNY   92  68  45 S6        29.94F HX  96
NWS MEMPHIS      N/A     91 N/A N/A MISG        N/A
JACKSON        SUNNY     91  68  46 VRB5      29.94F HX  95
DYERSBURG      SUNNY     93  70  46 W6        29.95F HX  99
PARIS          SUNNY     90  66  45 CALM      29.95F HX  92
$$

TNZ008-025-027-028-033-062-065-066-032200-
NORTH MIDDLE TENNESSEE

CITY           SKY/WX    TMP DP  RH WIND       PRES   REMARKS
NASHVILLE      MOSUNNY   93  61  34 E7        29.94F HX  93
CLARKSVILLE    PTSUNNY   92  63  38 CALM      29.94F HX  93
COOKEVILLE     SUNNY     93  70  46 CALM      29.97F HX  99
CROSSVILLE     MOSUNNY   88  63  43 VRB5      30.03F
$$

TNZ061-075-076-078-094-096-097-032200-
SOUTH MIDDLE TENNESSEE

CITY           SKY/WX    TMP DP  RH WIND       PRES   REMARKS
WINCHESTER     SUNNY     90  66  45 CALM      29.96F HX  92
SHELBYVILLE    SUNNY     93  70  46 E6        29.96F HX  99
$$

TNZ017-018-042-046-047-032200-
NORTHEAST TENNESSEE

CITY           SKY/WX    TMP DP  RH WIND       PRES   REMARKS
TRI CITIES     MOSUNNY   85  64  49 CALM      29.99F THUNDER
$$

TNZ012-013-036-069-073-074-032200-
CENTRAL EAST TENNESSEE

CITY           SKY/WX    TMP DP  RH WIND       PRES   REMARKS
KNOXVILLE      MOSUNNY   91  61  36 NE9       29.95F HX  91
OAK RIDGE      SUNNY     90  63  40 CALM      29.97F HX  91
GATLINBURG       N/A     90  59  35 NE8       29.95F
$$

TNZ083-085-099-032200-
SOUTHEAST TENNESSEE

CITY           SKY/WX    TMP DP  RH WIND       PRES   REMARKS
CHATTANOOGA    MOSUNNY   91  66  43 N10       29.95F HX  93
$$

SKY/WX REPORTED AS FAIR MEANS FEW OR NO CLOUDS BELOW
12 THOUSAND FEET.




USA.gov is the U.S. government's official web portal to all federal, state and local government web resources and services.